Regional Weather Roundup
Issued by NWS

Home | Current Version | Previous Version | Graphics & Text | Print | Product List | Glossary On
Versions: 1 2 3 4 5 6 7 8 9 10 11 12 13 14 15 16 17 18 19 20 21 22 23 24 25 26 27 28 29 30 31 32 33 34 35 36 37 38 39 40 41 42 43 44 45 46 47 48 49 50
000
ASUS43 KMPX 200610
RWRMN
WEATHER ROUNDUP FOR MINNESOTA
NATIONAL WEATHER SERVICE TWIN CITIES/CHANHASSEN MN
100 AM CDT WED AUG 20 2014


NOTE: "FAIR" INDICATES FEW OR NO CLOUDS BELOW 12,000 FEET WITH NO
SIGNIFICANT WEATHER AND/OR OBSTRUCTIONS TO VISIBILITY. N/A MEANS
CURRENT SKY AND/OR WEATHER CONDITIONS ARE NOT AVAILABLE.

MNZ060>063-068>070-200700-
   Twin Cities Metro

CITY           SKY/WX    TMP DP  RH WIND       PRES   REMARKS
TWIN CITIES    FAIR      70  65  84 CALM      29.79S
6HR MIN TEMP:  70; 6HR MAX TEMP:  79;

ST PAUL        MOCLDY    66  66 100 CALM      29.80R
CRYSTAL        MOCLDY    68  64  87 CALM      29.79R
BLAINE         FAIR      64  64 100 CALM      29.80S
LAKEVILLE      FAIR      64  63  94 CALM      29.80S FOG
EDEN PRAIRIE   FAIR      68  66  93 CALM      29.79S
6HR MIN TEMP:  68; 6HR MAX TEMP:  79;

SOUTH ST PAUL  FAIR      67  65  91 CALM      29.79S
LAKE ELMO      FOG       61  61 100 CALM      29.81R VSB 1/4
$$
MNZ001>005-007-008-013>017-022>024-027-028-200700-
   Northwest Minnesota

CITY           SKY/WX    TMP DP  RH WIND       PRES   REMARKS
BEMIDJI        FAIR      64  62  93 SE5       29.82S
HALLOCK        FAIR      66  63  88 SE7       29.76S
ROSEAU         FAIR      64  59  82 SE6       29.80S
WARROAD        FAIR      63  61  94 SE6       29.82R
THIEF RVR FALL FAIR      63  59  88 SE6       29.80R
CROOKSTON      FAIR      64  61  88 SE6       29.79R
FOSSTON        FAIR      61  55  82 CALM      29.82R
DETROIT LAKES  FAIR      68  61  77 SE5       29.82S
MOORHEAD       FAIR      70  68  94 SE6       29.78S
PARK RAPIDS    FAIR      63  61  93 CALM      29.82R
MAHNOMEN       FAIR      63  60  90 SE5       29.80S
$$
MNZ006-009>011-018-025>026-200700-
   North Central Minnesota

CITY           SKY/WX    TMP DP  RH WIND       PRES   REMARKS
BAUDETTE       FAIR      62  59  90 E3        29.82R
FLAG ISLAND    FAIR      70  63  78 S9        29.80S
INTL FALLS     FAIR      50  50 100 CALM      29.83R
6HR MIN TEMP:  50; 6HR MAX TEMP:  70;

WASKISH        FAIR      57  57 100 CALM      29.82S
BIG FORK       MOCLDY    54  52  94 CALM      29.84S FOG
LONGVILLE      FAIR      57  55  94 CALM      29.82S
GRAND RAPIDS   FAIR      57  55  94 CALM      29.83F
CRANE LAKE     FAIR      50  50 100 CALM      29.85R
ORR            FAIR      55  54  94 CALM      29.82R
COOK           CLOUDY    54  54 100 CALM      29.84R FOG
WALKER         FAIR      63  61  95 SE3       29.82S
$$
MNZ012-019>021-037-200700-
   Northeast Minnesota

CITY           SKY/WX    TMP DP  RH WIND       PRES   REMARKS
DULUTH         MOCLDY    61  58  90 E5        29.83S
6HR MIN TEMP:  61; 6HR MAX TEMP:  68;

ELY            CLOUDY    61  59  94 CALM      29.83S
HIBBING        CLOUDY    58  56  93 CALM      29.84R FOG
EVELETH        MOCLDY    57  55  94 CALM      29.85R FOG
DULUTH HARBOR  CLOUDY    63  61  94 E8        29.83R
TWO HARBORS    HAZE      57  54  88 E3        29.82S VSB 1/4
SILVER BAY     RAIN      57  57 100 CALM      29.82R VSB 1/4
GRAND MARAIS     N/A     61  59  93 CALM      29.81R
G MARAIS ARPRT CLOUDY    57  54  88 CALM      29.84F
$$
MNZ029>031-032-039>041-046>048-054>057-064-200700-
   West Central Minnesota

CITY           SKY/WX    TMP DP  RH WIND       PRES   REMARKS
FERGUS FALLS   FAIR      70  61  73 CALM      29.79S
WHEATON        FAIR      63  61  94 SE6       29.81R
MORRIS         FAIR      64  64 100 SE3       29.79F
ALEXANDRIA     FAIR      64  61  90 CALM      29.82F
ELBOW LAKE     FAIR      66  62  87 SE3       29.80S
WADENA         FAIR      61  59  94 CALM      29.82S
GLENWOOD       FAIR      63  61  94 NE5       29.82F
APPLETON       FAIR      66  63  88 CALM      29.79S
BENSON         FOG       63  63 100 CALM      29.80S VSB 1/2
ORTONVILLE     FAIR      66  63  88 SE3       29.80R
MADISON          N/A     70  66  88 CALM      29.80S
WILLMAR        FAIR      64  63  94 CALM      29.82S
$$
MNZ033>034-036-042>043-049>051-058-059-200700-
   Central Minnesota

CITY           SKY/WX    TMP DP  RH WIND       PRES   REMARKS
ST CLOUD       FAIR      64  61  90 CALM      29.81R
6HR MIN TEMP:  64; 6HR MAX TEMP:  81;

SAUK CENTRE    FAIR      61  60  98 CALM      29.82S
PAYNESVILLE    FAIR      58  58 100 CALM      29.82S FOG
AITKIN         HAZE      61  55  82 CALM      29.81S VSB 1
PINE RIVER     FAIR      61  61 100 CALM      29.86R
BRAINERD       FAIR      61  61 100 CALM      29.82S
STAPLES        FAIR      61  61 100 CALM      29.82S
LONG PRAIRIE   FAIR      61  61 100 CALM      29.83R
LITTLE FALLS   MOCLDY    61  59  94 CALM      29.82R
LITCHFIELD     FAIR      66  66 100 CALM      29.81S
BUFFALO        FAIR      64  60  88 CALM      29.81S
MAPLE LAKE     FAIR      64  64  98 CALM      29.82S FOG
$$
MNZ037-044-045-052-053-200700-
   East Central Minnesota

CITY           SKY/WX    TMP DP  RH WIND       PRES   REMARKS
PRINCETON      FAIR      64  63  94 CALM      29.81S
MORA           FAIR      61  59  94 CALM      29.83S
CAMBRIDGE      FAIR      64  57  77 CALM      29.79S
RUSH CITY      FAIR      63  62  94 CALM      29.81S
MOOSE LAKE       N/A     57  55  94 CALM      29.81S FOG
HINCKLEY       CLOUDY    61  61 100 CALM      29.82R
CLOQUET        CLOUDY    57  57 100 CALM      29.83S FOG
MCGREGOR         N/A     59  59 100 CALM      29.83S
$$
MNZ071>073-080-081-089-090-097-098-200700-
   Southwest Minnesota

CITY           SKY/WX    TMP DP  RH WIND       PRES   REMARKS
MONTEVIDEO     FAIR      66  64  94 CALM      29.81S
GRANITE FALLS  FAIR      65  64  97 S6        29.83R
CANBY          FAIR      65  64  95 S3        29.82S
MARSHALL       FAIR      66  61  82 S6        29.81S
REDWOOD FALLS  FAIR      67  64  90 CALM      29.80S
OLIVIA         FAIR      64  61  88 CALM      29.81R
PIPESTONE      FAIR      68  63  83 CALM      29.84S
WINDOM         FAIR      64  63  94 CALM      29.84S
WORTHINGTON    FAIR      64   9  11 SW3       29.86R
JACKSON        FAIR      64  61  88 S5        29.85R
TRACY          FAIR      68  64  88 CALM      29.83S
SLAYTON        FAIR      65  62  89 CALM      29.85S
$$
MNZ065>067-074>077-082>085-091>093-200700-
   South Central Minnesota

CITY           SKY/WX    TMP DP  RH WIND       PRES   REMARKS
MANKATO        FAIR      66  63  88 CALM      29.81R
NEW ULM        FAIR      64  64 100 CALM      29.81S
ST JAMES       FAIR      66  63  88 CALM      29.83R
FAIRMONT       FAIR      66  50  55 CALM      29.83R
GLENCOE        FAIR      65  61  87 CALM      29.80S
FARIBAULT      FAIR      66  61  82 CALM      29.81S HAZE
OWATONNA       FAIR      63  61  94 CALM      29.81F FOG
WASECA         FAIR      61  55  82 CALM      29.83S FOG
ALBERT LEA     FAIR      66  66 100 CALM      29.82S FOG
$$
MNZ078>079-086>088-094>096-200700-
   Southeast Minnesota

CITY           SKY/WX    TMP DP  RH WIND       PRES   REMARKS
ROCHESTER      FAIR      64  62  93 SW6       29.82S
6HR MIN TEMP:  64; 6HR MAX TEMP:  74; 6HR PCP: TRACE;

RED WING       FAIR      64  63  94 CALM      29.79R
STANTON        FAIR      64  62  93 CALM      29.79S
DODGE CENTER   FAIR      63  63 100 SW6       29.82S
WINONA         FAIR      64  63  94 CALM      29.79R
AUSTIN         FAIR      64  64 100 CALM      29.82S
PRESTON        FAIR      65  65  99 SW6       29.82S
$$
ABBREVIATIONS USED IN REMARKS
   TC - TEMPERATURES IN CELSIUS
  WCI - WIND CHILL INDEX
   HX - HEAT INDEX
  VSB - VISIBILITY
$$


USA.gov is the U.S. government's official web portal to all federal, state and local government web resources and services.